Weather in Shopsha

Russia / Yaroslavl Oblast     57°25′21″N   39°38′35″E
temp.,
°C
wind,
m/s
gust,
m/s
humid.,
%
clouds,
%
prec.,
mm/h
press.,
hPa
HPBL,
m
29 june, wed
wed2900:00+10ne33710 0.0 102432
03:00+8ne22753 0.0 102525
06:00+11ne23724 0.0 1025128
09:00+16ne34555 0.0 1024646
12:00+18ne33464 0.0 10241455
15:00+20ne23450 0.0 10221505
18:00+20ne13460 0.0 10211219
21:00+14nw227118 0.0 102016
30 june, thu
thu3000:00+11nnw2269100 0.0 102013
03:00+9nw227132 0.0 102020
06:00+12nw36720 0.0 1020169
09:00+18n575224 0.0 1019619
12:00+21n584164 0.0 10181765
15:00+23n694214 0.0 10172009
18:00+21n68580 0.0 1017995
21:00+17nnw4106953 0.0 1017235
1 july, fri
fri100:00+12nne34765 0.0 101954
03:00+9ne22820 0.0 102027
06:00+12ne24735 0.0 1021126
09:00+17nne34555 0.0 1021658
12:00+20ne45435 0.0 10211668
15:00+21ne35406 0.0 10211803
18:00+21ene24503 0.0 10201095
21:00+16wsw22635 0.0 102011
2 july, sat
sat200:00+13w3376100 0.0 102028
03:00+12wnw346738 0.0 102045
06:00+15w3868100 0.0 1018180
09:00+22nw46595 0.1 1017524
12:00+25n45565 0.0 10151300
15:00+27nne48488 0.4 10142094
18:00+25n59565 0.0 1014717
21:00+19nne37750 0.0 1015105
3 july, sun
sun300:00+14ene35863 0.0 101677
03:00+12e22923 0.0 101716
06:00+15ene11804 0.0 101790
09:00+20ne12625 0.0 1016586
12:00+23n23545 0.0 10161236
15:00+25nne24470 0.0 10141687
18:00+25nnw24530 0.0 1013927
21:00+19n34701 0.0 101349